Theta_e
314 313 313 312 311 309 309 325 314 327 326 314 318 316 318 307 317 319 316 317 316 314 315 313 314 312 315 318 318 313 319 317 311 313 319 319 315 312 313 307 306 309 307 306
314 313 313 312 310 310 331 322 323 326 323 313 315 319 318 319 317 317 315 314 316 317 314 311 314 314 319 318 316 315 318 313 307 310 314 316 312 314 315 314 312 307 304 307
313 313 313 311 310 311 325 325 313 318 320 320 318 318 317 316 319 318 318 317 317 315 314 316 314 314 317 319 318 322 317 312 309 305 309 313 310 312 314 312 308 309 309 311
313 313 313 312 311 311 326 326 318 318 311 315 319 321 319 316 315 319 320 317 317 317 314 315 314 316 317 319 318 317 317 310 313 313 314 314 312 311 312 311 311 308 310 311
313 314 314 312 310 309 332 328 324 320 319 319 318 312 319 317 317 318 317 316 318 319 316 318 316 318 319 318 321 319 320 313 315 312 315 314 311 313 313 313 313 312 312 311
314 314 314 313 310 313 333 334 335 328 314 317 317 318 318 318 320 320 322 320 320 318 320 324 324 324 323 322 320 319 319 316 314 309 314 313 308 312 313 313 314 313 309 314
314 314 314 313 311 309 324 328 329 326 318 320 318 318 319 319 320 319 322 323 321 324 329 328 325 322 320 320 318 320 317 316 314 309 312 302 313 318 316 314 315 316 316 318
314 314 314 314 312 310 323 323 326 325 320 323 321 320 322 322 323 321 321 323 327 330 325 318 315 315 317 318 319 319 319 316 310 307 307 311 312 316 316 315 314 316 317 321
313 314 314 313 312 310 320 322 323 325 318 317 320 320 323 321 321 322 323 327 331 327 321 316 312 309 313 311 314 320 319 319 312 310 305 303 314 318 321 319 308 322 322 322
312 313 314 314 313 310 314 322 320 321 317 319 319 316 316 321 320 317 321 323 324 326 317 313 311 310 316 309 310 314 314 314 310 310 307 311 319 321 321 308 312 324 323 323
312 313 313 313 313 312 313 321 321 315 316 319 320 319 318 319 319 315 320 322 321 319 315 313 313 312 314 313 316 315 313 312 311 313 309 306 322 320 314 321 325 324 324 323
312 313 313 313 312 312 311 317 320 319 313 317 320 321 322 321 322 321 322 320 321 322 315 316 316 312 315 315 310 320 312 316 314 315 314 324 325 324 325 326 324 324 325 325
312 312 312 312 312 311 310 315 318 317 314 316 318 318 324 324 321 322 315 318 323 322 324 319 318 316 318 312 314 317 320 323 317 318 320 320 321 324 326 327 325 325 327 326
311 311 311 311 311 311 310 315 318 318 315 310 315 321 319 325 324 322 320 319 321 322 322 318 315 311 318 314 315 315 318 321 320 320 323 323 322 324 325 324 327 327 328 328
311 311 312 311 311 310 312 319 324 323 315 311 313 319 321 324 323 321 321 320 318 315 313 313 311 314 314 315 314 312 318 316 312 312 320 319 320 323 323 324 326 327 327 327
310 311 311 311 311 310 317 317 324 327 324 316 310 320 320 323 324 323 321 320 320 319 313 313 314 317 314 311 310 318 318 321 320 317 321 322 323 324 326 325 326 326 327 329
310 310 310 310 310 316 315 314 317 313 323 316 312 314 321 319 322 323 322 321 319 318 315 313 314 315 315 312 309 317 318 320 322 323 323 321 323 322 326 327 327 327 329 330
310 310 309 310 310 310 315 320 314 314 317 317 310 312 314 321 316 318 326 319 319 317 315 316 313 315 313 309 317 319 320 320 321 323 324 323 325 326 325 326 327 327 326 328
309 309 311 315 314 321 319 313 313 321 318 312 314 309 308 318 314 316 319 320 313 319 313 313 314 312 310 316 319 320 322 321 322 324 324 324 323 324 325 325 326 327 327 328
309 313 316 317 318 311 316 317 316 317 317 315 309 313 308 315 316 314 311 317 314 309 314 318 312 310 318 320 321 323 325 325 325 322 321 322 322 323 324 324 325 327 329 328
315 311 312 315 317 320 318 313 311 314 310 314 316 315 312 320 314 313 316 309 313 307 313 311 311 311 319 323 323 329 327 328 327 327 326 325 326 326 326 326 326 328 330 330
307 307 310 314 315 314 308 309 312 309 309 314 313 312 316 317 322 315 314 308 309 305 320 310 307 318 325 325 324 326 326 326 325 326 325 327 328 329 329 329 328 330 333 334
311 307 308 311 312 300 301 301 306 308 311 313 315 311 314 315 320 315 312 305 305 315 309 307 312 322 324 324 325 324 326 326 326 326 328 329 330 331 331 330 331 333 334 335
308 306 294 303 303 305 310 309 310 315 313 314 313 311 311 317 316 313 308 310 311 304 301 304 316 321 324 327 326 325 325 326 325 327 328 328 329 330 332 333 333 333 333 335
303 306 296 304 310 312 313 313 314 315 316 313 311 311 312 310 311 314 311 307 302 305 308 317 319 328 327 327 327 326 326 326 327 328 327 328 329 331 332 334 335 334 334 334
301 302 302 307 306 307 309 311 311 317 314 314 312 309 308 308 311 307 305 304 301 309 315 319 322 327 327 328 327 328 330 330 329 329 329 329 330 331 332 333 334 334 333 333
299 301 308 307 307 307 308 311 311 315 311 306 308 303 303 312 308 305 311 303 309 313 315 318 324 325 326 331 330 328 329 331 331 331 331 330 332 333 332 331 333 332 333 333
Wind_Speed
26 26 26 24 22 15 4 10 7 8 7 9 9 11 2 4 9 6 5 8 7 5 4 8 11 5 3 4 8 11 8 11 12 16 3 5 10 14 14 11 11 11 11 13
27 27 27 26 22 14 8 8 3 6 8 8 9 4 8 8 6 7 6 6 5 1 8 7 9 7 10 2 9 5 9 7 11 14 15 10 8 11 11 11 15 15 13 11
28 28 29 28 25 17 5 5 7 6 9 13 13 10 12 12 4 4 5 6 3 6 10 8 9 6 6 3 9 8 4 15 18 15 19 16 11 13 13 15 11 14 15 18
28 29 30 31 28 21 5 6 3 2 9 12 12 4 6 12 10 10 5 6 9 9 9 10 10 12 11 10 11 7 11 16 16 17 18 16 19 17 17 17 17 18 20 21
28 29 31 33 34 27 6 7 5 5 10 7 14 7 12 14 10 3 9 10 15 7 9 10 10 6 8 9 9 10 13 16 13 18 20 18 21 21 20 20 19 19 21 20
27 28 29 31 35 27 4 6 4 7 5 11 12 13 13 13 14 3 10 12 11 8 8 9 6 13 13 15 13 12 15 13 15 18 20 19 17 16 16 13 10 11 15 18
26 26 27 29 29 25 8 5 6 7 10 9 10 12 5 11 12 10 12 5 12 5 5 7 12 17 17 16 16 15 14 14 12 15 16 19 18 6 5 9 12 12 14 11
23 24 25 26 27 28 7 6 6 5 10 7 9 8 10 9 9 9 13 13 10 4 8 11 15 14 18 17 17 16 15 11 12 15 15 16 17 4 7 9 11 15 14 8
23 24 25 26 25 26 11 7 7 6 7 7 13 9 10 11 12 13 14 9 5 9 10 11 16 13 15 6 5 4 10 11 11 13 16 18 8 6 4 6 14 9 7 7
23 22 22 23 24 24 11 4 10 6 7 6 6 5 9 8 11 11 4 6 7 12 11 13 15 16 17 18 14 10 9 10 13 13 14 16 12 10 3 8 4 6 8 8
22 21 22 22 22 21 13 3 7 7 6 10 10 9 9 8 6 10 1 4 8 9 12 12 14 15 14 16 14 14 14 12 13 13 16 20 8 2 7 8 9 11 14 11
21 21 21 21 20 19 16 4 5 5 6 9 12 13 13 12 14 11 11 10 5 4 6 9 9 11 12 9 13 11 15 14 12 15 8 4 2 7 9 9 10 14 13 12
20 21 21 20 17 14 10 6 6 6 6 10 11 6 5 9 13 13 10 9 9 12 9 10 11 13 9 12 11 14 14 12 13 12 13 15 13 8 9 10 15 14 12 11
20 21 21 20 16 12 9 6 6 5 6 6 2 4 4 0 6 8 15 16 12 7 8 9 11 13 11 13 15 14 12 5 8 11 14 16 15 15 10 11 10 11 11 12
22 22 21 19 15 11 10 6 2 3 6 7 9 16 7 6 7 9 10 11 13 10 11 11 12 12 14 12 15 11 12 13 11 11 11 12 13 11 11 11 13 11 14 12
24 23 22 19 14 8 7 6 4 0 3 6 6 6 3 4 5 8 9 11 11 10 11 10 12 19 14 8 12 14 12 11 11 11 9 12 12 13 10 14 15 17 16 15
23 23 20 17 9 7 4 8 6 6 6 6 6 4 7 2 6 6 5 8 7 8 10 13 12 12 7 13 15 16 17 12 12 12 12 12 13 10 13 12 14 14 15 12
24 21 16 10 4 6 5 5 3 5 6 5 5 5 5 3 6 4 2 6 6 7 9 9 11 10 12 13 13 15 15 13 11 9 12 13 11 12 13 13 13 15 14 15
25 20 11 5 6 3 6 4 5 5 6 6 4 5 5 3 6 4 5 5 7 8 10 11 11 11 11 11 15 14 11 12 9 11 13 14 13 14 14 13 14 14 15 14
26 9 6 4 5 2 6 5 5 7 6 6 6 4 8 6 7 7 6 5 6 8 8 8 11 12 16 17 15 12 6 9 11 11 10 11 12 14 15 17 15 14 14 12
6 6 4 7 2 5 6 4 4 5 5 6 3 4 8 5 8 9 5 5 6 6 8 6 7 10 2 13 6 6 4 6 7 7 9 11 12 14 14 14 15 13 12 12
7 7 8 5 5 4 4 5 4 5 1 4 2 5 8 3 3 5 4 6 6 6 2 4 7 5 9 5 3 0 6 7 7 9 11 12 13 13 14 14 12 13 11 9
3 5 5 2 1 2 6 7 5 4 3 4 4 6 3 5 4 6 4 6 7 6 4 9 5 8 6 4 4 4 7 9 10 11 11 11 11 13 13 13 12 12 10 9
5 3 3 6 6 6 2 5 5 2 4 6 6 7 6 1 4 5 4 5 6 5 7 5 3 4 8 5 5 6 9 9 10 9 10 10 11 12 13 11 10 11 10 10
5 5 5 6 4 2 2 5 3 4 4 6 6 7 8 6 5 4 4 4 6 2 5 5 6 12 10 9 8 8 8 9 9 10 10 11 11 12 11 11 9 8 7 6
3 5 7 5 6 6 5 5 5 2 4 5 6 4 5 7 4 4 4 4 1 4 6 7 7 10 12 12 10 10 10 10 10 10 11 11 10 11 10 8 7 5 5 5
4 6 9 8 6 6 6 4 5 4 5 7 4 5 2 6 4 2 1 3 7 9 9 6 11 12 13 12 12 11 13 10 10 9 9 9 10 10 9 5 7 8 3 4
Wind_Direction
358 357 357 356 356 353 246 249 223 143 188 229 232 247 156 357 150 191 222 301 313 257 218 253 245 257 170 79 296 292 308 311 305 302 287 240 282 286 294 293 294 290 310 302
360 358 358 359 355 349 312 248 127 161 217 236 201 158 192 234 194 196 206 215 267 227 276 261 272 270 86 356 276 335 313 263 278 268 238 177 245 272 268 282 294 279 278 283
0 360 359 358 357 353 268 275 181 155 212 269 283 185 211 196 244 262 289 319 297 245 251 231 274 236 234 172 276 51 304 270 274 283 310 320 296 286 281 275 266 285 289 304
1 1 359 358 356 352 267 250 278 97 192 221 243 274 236 229 175 240 224 237 259 265 260 251 240 248 263 186 163 232 247 267 284 290 295 290 289 282 282 279 284 285 300 302
3 2 1 358 355 345 255 311 317 182 288 205 215 179 243 256 249 215 224 232 287 235 267 278 274 295 274 278 167 230 255 263 266 274 276 274 274 273 273 272 273 276 285 288
1 2 3 3 1 341 351 1 254 277 183 221 224 239 215 255 270 272 271 301 275 247 273 314 314 310 299 287 282 274 282 289 289 280 291 294 276 265 269 286 288 307 306 324
4 3 3 4 3 8 297 21 287 270 255 227 227 242 275 264 266 256 277 240 275 326 308 292 271 265 265 265 264 267 258 255 270 273 279 269 275 23 305 285 296 295 317 335
2 2 4 4 2 358 316 13 326 309 277 287 239 242 265 241 243 253 264 274 260 325 282 268 266 261 242 243 254 250 251 264 268 263 254 274 280 302 348 357 316 311 297 354
1 0 1 2 2 358 319 45 331 289 301 273 343 301 257 256 248 232 229 261 313 280 265 266 261 256 275 262 222 232 264 246 258 259 269 274 301 90 76 337 291 51 6 347
1 1 1 1 0 355 330 17 359 277 284 315 332 282 298 261 264 276 297 233 200 237 253 255 258 262 260 259 259 229 219 235 252 248 256 269 283 96 99 265 1 347 328 322
356 357 359 360 360 355 343 6 14 337 306 302 291 287 282 271 253 272 18 242 230 257 239 257 263 264 263 267 266 269 269 248 245 242 260 268 41 118 246 355 330 317 319 319
350 351 351 353 353 353 337 290 11 332 262 304 323 287 288 282 292 301 293 254 297 286 263 231 259 264 264 263 278 249 245 253 283 294 314 119 122 280 284 291 307 300 297 295
347 347 345 343 344 343 339 315 323 292 263 271 231 234 186 244 241 261 267 274 282 263 285 304 288 279 276 271 261 259 256 248 260 269 283 292 298 297 310 297 293 292 285 306
340 339 337 336 333 326 316 316 343 284 288 281 101 82 216 17 262 258 249 267 284 287 285 271 266 266 260 262 277 275 287 316 293 281 272 271 273 282 310 305 307 289 280 270
335 329 324 324 321 310 279 258 300 299 308 329 319 309 286 320 270 250 250 249 250 251 246 242 250 261 266 268 276 258 274 282 274 281 288 304 305 303 305 298 297 287 291 287
331 327 320 319 313 291 253 194 132 262 320 277 287 22 241 260 231 255 252 238 243 246 248 253 261 266 262 260 261 263 258 260 284 280 287 278 281 283 289 282 278 274 272 280
323 321 318 315 304 249 316 11 32 337 307 255 284 278 127 266 260 233 238 224 246 244 249 242 264 269 236 259 262 279 280 263 254 273 282 287 284 280 270 317 309 296 279 261
318 318 318 312 293 258 192 115 278 294 267 270 275 279 259 43 291 267 157 256 223 234 247 255 239 241 246 258 260 276 280 278 279 290 276 268 288 296 294 282 284 280 266 268
315 308 309 240 228 249 59 331 255 218 295 302 265 303 331 357 295 294 253 244 262 229 239 236 256 248 244 241 234 257 271 274 299 308 307 301 289 283 279 289 294 294 281 263
304 279 214 184 43 318 221 182 201 206 180 223 262 300 271 290 321 298 278 245 233 268 234 225 238 252 266 270 266 275 342 318 298 286 284 295 307 306 303 298 291 291 289 275
336 337 346 350 327 244 219 259 239 159 225 194 233 304 318 330 307 321 299 302 294 255 266 220 261 258 308 225 238 15 310 268 272 285 289 296 306 305 301 300 288 282 280 272
327 304 286 268 239 244 235 229 169 240 325 31 316 272 277 296 298 266 253 254 247 254 68 235 260 60 68 83 94 201 281 279 283 294 295 300 305 309 304 297 272 273 279 276
185 225 240 271 189 342 229 190 206 180 33 350 303 298 284 221 242 262 254 248 248 299 228 243 311 101 99 70 41 346 312 300 286 288 299 305 309 313 309 300 286 270 275 290
279 267 295 237 188 239 260 334 34 49 261 287 320 299 294 270 246 278 255 262 309 235 252 32 327 40 64 11 3 328 329 324 314 308 303 315 320 321 319 296 271 266 268 276
285 301 245 226 294 308 263 264 291 255 274 287 314 287 247 266 246 249 279 257 244 311 51 23 347 350 0 349 342 343 337 339 331 323 322 321 325 320 328 330 314 277 283 293
257 246 262 231 248 244 214 242 267 325 301 310 254 299 277 234 260 225 221 268 326 354 3 348 333 354 344 324 326 332 327 322 318 323 324 316 311 317 323 314 320 322 288 295
239 241 221 250 278 284 299 302 299 325 283 275 286 254 297 302 249 241 150 233 319 354 336 328 323 332 326 310 310 332 331 324 325 328 324 317 307 308 304 346 330 311 307 245